Regional Weather Roundup
Issued by NWS

Home | Current Version | Previous Version | Graphics & Text | Print | Product List | Glossary On
Versions: 1 2 3 4 5 6 7 8 9 10 11 12 13 14 15 16 17 18 19 20 21 22 23 24 25 26 27 28 29 30 31 32 33 34 35 36 37 38 39 40 41 42 43 44 45 46 47 48 49 50
000
ASUS44 KMEG 202100
RWRTN
TENNESSEE HOURLY STATE WEATHER ROUNDUP
NATIONAL WEATHER SERVICE MEMPHIS TN
400 PM CDT SAT SEP 20 2014

TNZ002-004-019-021-049-052-054-088>092-202200-
WEST TENNESSEE

CITY           SKY/WX    TMP DP  RH WIND       PRES   REMARKS
MEMPHIS INTL   PTSUNNY   88  63  43 S5        29.99F
NWS MEMPHIS      N/A     88 N/A N/A MISG        N/A
JACKSON        PTSUNNY   85  68  56 S5        30.01F
DYERSBURG      MOSUNNY   88  63  42 CALM      30.01R
UNION CITY     SUNNY     84  70  61 VRB5      29.99F
PARIS          MOSUNNY   82  66  57 SW7       30.02S
SAVANNAH       SUNNY     84  66  54 CALM      30.02F
$$

TNZ008-025-027-028-033-062-065-066-202200-
NORTH MIDDLE TENNESSEE

CITY           SKY/WX    TMP DP  RH WIND       PRES   REMARKS
NASHVILLE      PTSUNNY   86  64  47 SW3       30.02F
CLARKSVILLE    MOSUNNY   85  66  53 VRB7      30.01F
COOKEVILLE     SUNNY     84  66  54 NW6       30.06F
CROSSVILLE     SUNNY     80  58  46 NW7       30.10F
$$

TNZ061-075-076-078-094-096-097-202200-
SOUTH MIDDLE TENNESSEE

CITY           SKY/WX    TMP DP  RH WIND       PRES   REMARKS
SHELBYVILLE    SUNNY     88  64  45 VRB6      30.04F
$$

TNZ017-018-042-046-047-202200-
NORTHEAST TENNESSEE

CITY           SKY/WX    TMP DP  RH WIND       PRES   REMARKS
TRI CITIES     MOSUNNY   83  49  30 E3        30.08F
ELIZABETHTON   CLEAR     73  57  56 NW3       30.08F
$$

TNZ012-013-036-069-073-074-202200-
CENTRAL EAST TENNESSEE

CITY           SKY/WX    TMP DP  RH WIND       PRES   REMARKS
KNOXVILLE      MOSUNNY   85  55  35 NE5       30.04F
OAK RIDGE      SUNNY     84  59  42 W3        30.06F
GATLINBURG     CLEAR     84  54  34 N6        30.04F
$$

TNZ083-085-099-202200-
SOUTHEAST TENNESSEE

CITY           SKY/WX    TMP DP  RH WIND       PRES   REMARKS
CHATTANOOGA    MOSUNNY   85  60  42 CALM      30.04F
$$

SKY/WX REPORTED AS FAIR MEANS FEW OR NO CLOUDS BELOW
12 THOUSAND FEET.



USA.gov is the U.S. government's official web portal to all federal, state and local government web resources and services.